When you browse on this site, cookies collect data to enhance your experience and personalize the content and advertising you see.
Visit our Privacy Policy to learn more. By continuing to use the site, you agree to this use of cookies and data.
  • In United Kingdom
  • List of Countries
  • For 7 days
  • Water Temperature
  • Satellite Maps
  • Weather Map
  • Weather Widgets
  • user-avatar
    Login

    Hourly Weather Santa Maria Petapa

    Today, 26 June, Wednesday

    Time Temperature Precipitation Wind Pressure Humidity
    00:00 +26°C° 0 mm 1 mps 739 mmHg 85%
    01:00 +26°C° 0 mm 1 mps 739 mmHg 85%
    02:00 +24°C° 0 mm 0 mps 738 mmHg 84%
    03:00 +24°C° 0 mm 0 mps 738 mmHg 83%
    04:00 +24°C° 0.1 mm 0 mps 738 mmHg 84%
    05:00 +25°C° 0.1 mm 1 mps 738 mmHg 85%
    06:00 +25°C° 0.1 mm 1 mps 738 mmHg 85%
    07:00 +27°C° 0 mm 1 mps 739 mmHg 77%
    08:00 +29°C° 0 mm 2 mps 739 mmHg 69%
    09:00 +31°C° 0 mm 2 mps 740 mmHg 61%
    10:00 +33°C° 0 mm 3 mps 739 mmHg 58%
    11:00 +34°C° 0 mm 4 mps 739 mmHg 55%
    12:00 +35°C° 0 mm 5 mps 739 mmHg 52%
    13:00 +35°C° 0 mm 5 mps 738 mmHg 52%
    14:00 +35°C° 0 mm 5 mps 738 mmHg 51%
    15:00 +35°C° 0 mm 6 mps 737 mmHg 51%
    16:00 +34°C° 0.1 mm 5 mps 737 mmHg 55%
    17:00 +33°C° 0.1 mm 5 mps 737 mmHg 60%
    18:00 +32°C° 0.1 mm 4 mps 737 mmHg 64%
    19:00 +30°C° 0.2 mm 4 mps 738 mmHg 71%
    20:00 +29°C° 0.2 mm 4 mps 738 mmHg 77%
    21:00 +27°C° 0.2 mm 3 mps 739 mmHg 83%
    22:00 +27°C° 0.2 mm 3 mps 739 mmHg 83%
    23:00 +27°C° 0.2 mm 3 mps 739 mmHg 82%

    Tomorrow, 27 June, Thursday

    Time Temperature Precipitation Wind Pressure Humidity
    00:00 +27°C° 0.2 mm 3 mps 739 mmHg 82%
    01:00 +26°C° 0 mm 3 mps 739 mmHg 82%
    02:00 +26°C° 0 mm 4 mps 739 mmHg 82%
    03:00 +26°C° 0 mm 4 mps 739 mmHg 82%
    04:00 +26°C° 0 mm 4 mps 739 mmHg 81%
    05:00 +26°C° 0 mm 4 mps 739 mmHg 81%
    06:00 +26°C° 0 mm 4 mps 739 mmHg 80%
    07:00 +27°C° 0 mm 4 mps 739 mmHg 74%
    08:00 +29°C° 0 mm 5 mps 740 mmHg 67%
    09:00 +30°C° 0 mm 5 mps 740 mmHg 61%
    10:00 +32°C° 0 mm 6 mps 740 mmHg 57%
    11:00 +34°C° 0 mm 6 mps 740 mmHg 53%
    12:00 +35°C° 0 mm 7 mps 740 mmHg 49%
    13:00 +35°C° 0 mm 7 mps 739 mmHg 50%
    14:00 +35°C° 0 mm 7 mps 739 mmHg 51%
    15:00 +35°C° 0 mm 7 mps 738 mmHg 52%
    16:00 +33°C° 0 mm 7 mps 738 mmHg 56%
    17:00 +32°C° 0 mm 6 mps 738 mmHg 61%
    18:00 +30°C° 0 mm 6 mps 738 mmHg 65%
    19:00 +29°C° 0 mm 5 mps 738 mmHg 70%
    20:00 +28°C° 0 mm 4 mps 739 mmHg 74%
    21:00 +27°C° 0 mm 4 mps 740 mmHg 79%
    22:00 +26°C° 0.1 mm 4 mps 740 mmHg 81%
    23:00 +26°C° 0.1 mm 4 mps 740 mmHg 83%

    Day after tomorrow, 28 June, Friday

    Time Temperature Precipitation Wind Pressure Humidity
    00:00 +25°C° 0.1 mm 4 mps 740 mmHg 86%
    01:00 +25°C° 0 mm 4 mps 740 mmHg 84%
    02:00 +25°C° 0 mm 4 mps 739 mmHg 83%
    03:00 +25°C° 0 mm 4 mps 739 mmHg 81%
    04:00 +25°C° 0 mm 4 mps 739 mmHg 81%
    05:00 +25°C° 0 mm 4 mps 739 mmHg 81%
    06:00 +23°C° 0 mm 4 mps 739 mmHg 80%
    07:00 +26°C° 0 mm 4 mps 740 mmHg 72%
    08:00 +28°C° 0 mm 5 mps 740 mmHg 63%
    09:00 +30°C° 0 mm 6 mps 741 mmHg 55%
    10:00 +32°C° 0 mm 6 mps 740 mmHg 52%
    11:00 +33°C° 0 mm 6 mps 740 mmHg 49%
    12:00 +34°C° 0 mm 7 mps 740 mmHg 46%
    13:00 +34°C° 0 mm 7 mps 739 mmHg 48%
    14:00 +34°C° 0 mm 7 mps 739 mmHg 49%
    15:00 +34°C° 0 mm 7 mps 738 mmHg 51%
    16:00 +32°C° 0.3 mm 6 mps 738 mmHg 58%
    17:00 +30°C° 0.3 mm 6 mps 738 mmHg 64%
    18:00 +29°C° 0.3 mm 5 mps 738 mmHg 71%
    19:00 +28°C° 0.1 mm 5 mps 739 mmHg 74%
    20:00 +27°C° 0.1 mm 4 mps 739 mmHg 78%
    21:00 +26°C° 0.1 mm 4 mps 740 mmHg 81%
    22:00 +26°C° 0 mm 4 mps 740 mmHg 80%
    23:00 +26°C° 0 mm 4 mps 740 mmHg 80%

    29 June, Saturday

    Time Temperature Precipitation Wind Pressure Humidity
    00:00 +26°C° 0 mm 4 mps 740 mmHg 79%
    01:00 +25°C° 0 mm 4 mps 740 mmHg 79%
    02:00 +25°C° 0 mm 4 mps 739 mmHg 80%
    03:00 +25°C° 0 mm 4 mps 739 mmHg 80%
    04:00 +25°C° 0 mm 4 mps 739 mmHg 81%
    05:00 +23°C° 0 mm 4 mps 739 mmHg 82%
    06:00 +23°C° 0 mm 4 mps 739 mmHg 83%
    07:00 +26°C° 0 mm 4 mps 740 mmHg 76%
    08:00 +27°C° 0 mm 4 mps 740 mmHg 69%
    09:00 +29°C° 0 mm 5 mps 741 mmHg 62%
    10:00 +30°C° 0 mm 5 mps 740 mmHg 57%
    11:00 +33°C° 0 mm 5 mps 740 mmHg 52%
    12:00 +34°C° 0 mm 6 mps 740 mmHg 46%
    13:00 +34°C° 0.1 mm 6 mps 739 mmHg 47%
    14:00 +34°C° 0.1 mm 6 mps 739 mmHg 48%
    15:00 +34°C° 0.1 mm 6 mps 738 mmHg 49%
    16:00 +32°C° 0.3 mm 6 mps 738 mmHg 57%
    17:00 +29°C° 0.3 mm 5 mps 738 mmHg 65%
    18:00 +28°C° 0.3 mm 5 mps 738 mmHg 73%
    19:00 +27°C° 0.1 mm 4 mps 739 mmHg 76%
    20:00 +26°C° 0.1 mm 4 mps 739 mmHg 79%
    21:00 +25°C° 0.1 mm 3 mps 740 mmHg 82%
    22:00 +25°C° 0 mm 3 mps 740 mmHg 82%
    23:00 +25°C° 0 mm 3 mps 740 mmHg 82%

    30 June, Sunday

    Time Temperature Precipitation Wind Pressure Humidity
    00:00 +25°C° 0 mm 3 mps 740 mmHg 83%
    01:00 +25°C° 0 mm 3 mps 740 mmHg 82%
    02:00 +24°C° 0 mm 3 mps 739 mmHg 82%
    03:00 +24°C° 0 mm 3 mps 739 mmHg 82%
    04:00 +24°C° 0 mm 3 mps 739 mmHg 81%
    05:00 +24°C° 0 mm 3 mps 739 mmHg 80%
    06:00 +23°C° 0 mm 4 mps 739 mmHg 79%
    07:00 +26°C° 0 mm 4 mps 739 mmHg 74%
    08:00 +27°C° 0 mm 4 mps 740 mmHg 68%
    09:00 +29°C° 0 mm 5 mps 740 mmHg 62%
    10:00 +30°C° 0 mm 5 mps 740 mmHg 59%
    11:00 +32°C° 0 mm 5 mps 740 mmHg 55%
    12:00 +33°C° 0 mm 6 mps 739 mmHg 51%
    13:00 +33°C° 0 mm 6 mps 739 mmHg 51%
    14:00 +34°C° 0 mm 6 mps 738 mmHg 51%
    15:00 +34°C° 0 mm 6 mps 738 mmHg 52%
    16:00 +32°C° 0.3 mm 5 mps 738 mmHg 59%
    17:00 +30°C° 0.3 mm 5 mps 738 mmHg 67%
    18:00 +28°C° 0.3 mm 4 mps 738 mmHg 75%
    19:00 +27°C° 0.1 mm 4 mps 738 mmHg 78%
    20:00 +26°C° 0.1 mm 4 mps 739 mmHg 82%
    21:00 +25°C° 0.1 mm 3 mps 739 mmHg 86%
    22:00 +25°C° 0 mm 3 mps 739 mmHg 86%
    23:00 +25°C° 0 mm 3 mps 739 mmHg 87%

    1 July, Monday

    Time Temperature Precipitation Wind Pressure Humidity
    00:00 +25°C° 0 mm 3 mps 740 mmHg 87%
    01:00 +25°C° 0 mm 3 mps 739 mmHg 87%
    02:00 +24°C° 0 mm 2 mps 739 mmHg 87%
    03:00 +24°C° 0 mm 2 mps 738 mmHg 87%
    04:00 +24°C° 0 mm 2 mps 739 mmHg 86%
    05:00 +24°C° 0 mm 2 mps 739 mmHg 86%
    06:00 +24°C° 0 mm 2 mps 739 mmHg 85%
    07:00 +26°C° 0 mm 2 mps 739 mmHg 78%
    08:00 +28°C° 0 mm 3 mps 740 mmHg 70%
    09:00 +29°C° 0 mm 3 mps 740 mmHg 62%
    10:00 +31°C° 0 mm 3 mps 740 mmHg 57%
    11:00 +34°C° 0 mm 4 mps 739 mmHg 52%
    12:00 +35°C° 0 mm 4 mps 739 mmHg 47%
    13:00 +35°C° 0 mm 4 mps 739 mmHg 48%
    14:00 +35°C° 0 mm 4 mps 738 mmHg 49%
    15:00 +35°C° 0 mm 5 mps 737 mmHg 49%
    16:00 +34°C° 0 mm 4 mps 737 mmHg 54%
    17:00 +33°C° 0 mm 4 mps 738 mmHg 58%
    18:00 +32°C° 0 mm 4 mps 738 mmHg 63%
    19:00 +30°C° 0 mm 3 mps 738 mmHg 71%
    20:00 +28°C° 0 mm 3 mps 738 mmHg 78%
    21:00 +27°C° 0 mm 2 mps 739 mmHg 86%
    22:00 +26°C° 0 mm 2 mps 739 mmHg 88%
    23:00 +26°C° 0 mm 2 mps 739 mmHg 90%
    Show more